Voltar ao catálogo

STARLINK-11314

AtivoComunicaçõesVLEO
NORAD 61878·PAYLOAD·🇺🇸 United States

Lançado Nov 9, 2024 de Vandenberg Space Force Base

Loading…

Próximas Passagens (próximas 24 horas)

TLE

AtualizadoSource: CelesTrak SupGP

Época: Sep 15, 2026, 03:06 UTC

1 61878C 24204E   26258.12965278  .00087061  00000+0  71713-3 0  2586
2 61878  53.1564 142.5653 0001177  94.6599 351.1852 15.69666462    17

Acompanhe STARLINK-11314 em tempo real com AllMySat

Download on the App Store